Hourly Weather Roundup
Issued by NWS Central Illinois

Home | Current Version | Previous Version | Text Only | Print | Product List | Glossary On
Versions: 1 2 3 4 5 6 7 8 9 10 11 12 13 14 15 16 17 18 19 20 21 22 23 24 25 26 27 28 29 30 31 32 33 34 35 36 37 38 39 40 41 42 43 44 45 46 47 48 49 50
000
NZUS43 KILX 240310
HWRILX

AREA WEATHER ROUNDUP
NATIONAL WEATHER SERVICE, LINCOLN IL
1000 PM CDT WED APR 23 2014


CITY           SKY/WX    TMP DP  RH WIND       PRES   REMARKS
BLOOMINGTON    CLOUDY    47  41  80 E7        30.03R
CHAMPAIGN      LGT RAIN  52  42  69 E8        30.02F
DANVILLE       LGT RAIN  55  31  40 E7        30.02F
DECATUR        MOCLDY    55  32  41 SE9       30.01F
FLORA          CLOUDY    56  34  43 E5        30.03S
GALESBURG      CLOUDY    49  40  69 E12       29.94F
JACKSONVILLE   CLOUDY    55  33  42 SE9       29.98F
LACON          CLOUDY    48  38  67 E6G16     30.02R
LAWRENCEVILLE  CLOUDY    58  37  45 E8        30.03F
LITCHFIELD     MOCLDY    54  35  48 SE8       29.99F
$$


CITY           SKY/WX    TMP DP  RH WIND       PRES   REMARKS
LINCOLN        MOCLDY    56  32  40 SE9       30.00R
MACOMB         CLOUDY    52  35  51 E16G22    29.97F
MATTOON        CLOUDY    54  30  40 E6        30.02R
MT CARMEL AP   CLOUDY    57  41  54 CALM      30.03S
OLNEY-NOBLE AP CLOUDY    54  36  50 CALM      30.03S
PARIS          CLOUDY    55  35  47 E7        30.05R
PEORIA         CLOUDY    54  36  50 E10       30.01R
PONTIAC        LGT RAIN  46  39  76 E17       30.00F
RANTOUL        RAIN      56  37  49 E9        30.02F
ROBINSON       CLOUDY    59  34  39 E8        30.04S
SPRINGFIELD    MOCLDY    57  28  33 SE12      29.99F
TAYLORVILLE    MOCLDY    54  32  43 SE7       30.00F
$$

...REGIONAL REPORTS...


CITY           SKY/WX    TMP DP  RH WIND       PRES   REMARKS
CHICAGO O`HARE CLOUDY    42  20  41 NE10      30.08F
KANKAKEE       CLOUDY    43  30  61 E8        30.07R
MOLINE         CLOUDY    48  40  73 SE7       29.98R
MOUNT VERNON   MOCLDY    54  30  40 E3        30.01F
PITTSFIELD     PTCLDY    56  33  42 SE12      29.94F
QUINCY         MOCLDY    55  33  43 SE15      29.90F
ROCKFORD       LGT RAIN  44  31  60 SE9       30.04F
$$


CITY           SKY/WX    TMP DP  RH WIND       PRES   REMARKS
BURLINGTON     CLOUDY    53  34  48 SE20G28   29.90F
CEDAR RAPIDS   CLOUDY    46  39  76 E22G29    29.87F
DES MOINES     CLOUDY    52  38  58 E14       29.79R
KIRKSVILLE     CLEAR     54  35  48 SE15      29.84F
OTTUMWA        MOCLDY    50  36  58 E15       29.86R
ST LOUIS       PTCLDY    59  34  39 SE13      29.96F
$$


CITY           SKY/WX    TMP DP  RH WIND       PRES   REMARKS
TERRE HAUTE    CLOUDY    56  31  38 E10       30.04F
EVANSVILLE     MOCLDY    57  40  52 E5        30.02F
INDIANAPOLIS   CLOUDY    54  31  41 NE3       30.09R
LAFAYETTE      CLOUDY    52  31  44 E8        30.06F
MADISON        LGT RAIN  41  32  70 E9        30.04R
MILWAUKEE      CLOUDY    38  21  50 E6        30.09F WCI  33
$$




USA.gov is the U.S. government's official web portal to all federal, state and local government web resources and services.